Regional Weather Roundup
Issued by NWS Charleston, WV

Home | Current Version | Previous Version | Graphics & Text | Print | Product List | Glossary On
Versions: 1 2 3 4 5 6 7 8 9 10 11 12 13 14 15 16 17 18 19 20 21 22 23 24 25 26 27 28 29 30 31 32 33 34 35 36 37 38 39 40 41 42 43 44 45 46 47 48 49 50
000
ASUS41 KRLX 281810
RWRRLX
West Virginia Regional Weather Roundup
National Weather Service Charleston WV
200 PM EDT THU MAY 28 2015

Note: "fair" indicates few or no clouds below 12,000 feet with no
significant weather and/or obstructions to visibility.

WVZ003-281900-
Northern Panhandle of West Virginia

CITY           SKY/WX    TMP DP  RH WIND       PRES   REMARKS
WHEELING       PTSUNNY   75  61  60 N9        30.26S
$$

WVZ009-281900-
Northwest West Virginia

CITY           SKY/WX    TMP DP  RH WIND       PRES   REMARKS
PARKERSBURG    PTSUNNY   81  61  50 VRB5      30.26S
$$

WVZ006-281900-
Western West Virginia

CITY           SKY/WX    TMP DP  RH WIND       PRES   REMARKS
HUNTINGTON     PTSUNNY   80  62  54 CALM      30.22F
$$

WVZ015-281900-
West Central West Virginia

CITY           SKY/WX    TMP DP  RH WIND       PRES   REMARKS
CHARLESTON     PTSUNNY   81  61  50 VRB5      30.22F
$$

WVZ022-031-281900-
North Central West Virginia

CITY           SKY/WX    TMP DP  RH WIND       PRES   REMARKS
CLARKSBURG     MOSUNNY   81  63  54 CALM      30.25S
MORGANTOWN     MOSUNNY   80  58  46 NE6       30.26F
$$

WVZ025-035-042-045-281900-
Southern West Virginia

CITY           SKY/WX    TMP DP  RH WIND       PRES   REMARKS
BECKLEY        PTSUNNY   75  61  61 NE5       30.30F
LOGAN            N/A     77  64  65 CALM      30.23S
BLUEFIELD      PTSUNNY   79  60  52 VRB3      30.32S
LEWISBURG      CLOUDY    74  60  60 N12G18    30.30R
$$

WVZ047-281900-
Northern Mountains of West Virginia

CITY           SKY/WX    TMP DP  RH WIND       PRES   REMARKS
ELKINS         MOSUNNY   79  58  48 W6        30.28S
$$

WVZ052-281900-
Eastern Panhandle of West Virginia

CITY           SKY/WX    TMP DP  RH WIND       PRES   REMARKS
MARTINSBURG    MOSUNNY   84  62  47 W6        30.21S
PETERSBURG     PTSUNNY   82  56  41 CALM      30.22S
$$



USA.gov is the U.S. government's official web portal to all federal, state and local government web resources and services.